Content
SEND FEEDBACK

Daily
Averages
Monthly
Summary
Spain

ZARAGOZA, SPAIN


Home > Europe > Spain
Elevation: 846 feet     Latitude: 41 40N     Longitude: 001 01W

WEATHER
 
SELECT A DAY
Number of Records: 313,744;   Date Range: 7/1/96 - 7/26/14
 
SHARE

PRINT THIS DATA

[ ← Previous Day ]
WEATHER ALMANAC - JANUARY 21, 2013
[ Next Day → ]
[ °C ]   °F
Weather ElementAverageHighLow
Temperature45 °F50 °F (1:00 pm)35.6 °F (11:00 pm)
Dewpoint33.8 °F39.2 °F (2:30 am)26.6 °F (5:00 pm)
Humidity65.5 %93 % (6:00 am)32 % (7:00 pm)
Barometer29.71 in29.86 in (8:30 pm)29.50 in (1:00 am)
Wind Speed13.9 mph25.3 mph (3:30 pm)
Wind Gust35.7 mph (1:00 pm)
Weather ElementAverage
Visibility8.8 mi
Wind DirectionWNW (279 °)

Weather ElementTotal
Precipitation---
Heating Degree Days22.2 (Base 65)
Averaged from 49 records on January 21, 2013
WEATHER CONDITIONS BREAKOUT
WIND DIRECTION BREAKOUT
WEATHER BY HOUR - JANUARY 21, 2013
[ °C ]   °F
Local TimeTemperatureDewpointHumidityBarometerVisibilityWind DirectionWind SpeedGust SpeedPrecipitationEventsConditions
12:30 AM46.4 °F37.4 °F71 %29.53 in6.2 miWSW (240°)21.9 mphScattered Clouds
1:00 AM47.0 °F36.0 °F55 %29.55 in12.0 miSW (230°)17.3 mphScattered Clouds
1:00 AM46.4 °F37.4 °F71 %29.50 in6.2 miSW (230°)18.4 mphScattered Clouds
1:30 AM48.2 °F37.4 °F66 %29.50 in6.2 miSW (230°)16.1 mphScattered Clouds
2:00 AM48.2 °F37.4 °F66 %29.50 in6.2 miWSW (240°)18.4 mphScattered Clouds
2:30 AM48.2 °F39.2 °F71 %29.50 in6.2 miWSW (240°)13.8 mphScattered Clouds
3:00 AM48.2 °F39.2 °F71 %29.53 in6.2 miWest (260°)12.7 mphScattered Clouds
3:30 AM48.2 °F39.2 °F71 %29.53 in6.2 miWest (270°)9.2 mphScattered Clouds
4:00 AM46.4 °F39.2 °F76 %29.53 in6.2 miWNW (290°)4.6 mphScattered Clouds
4:30 AM42.8 °F37.4 °F81 %29.53 in6.2 miNW (310°)6.9 mphScattered Clouds
5:00 AM41.0 °F37.4 °F87 %29.56 in6.2 miWest (270°)10.4 mphPartly Cloudy
5:30 AM41.0 °F37.4 °F87 %29.56 in6.2 miWest (280°)11.5 mphPartly Cloudy
6:00 AM39.2 °F37.4 °F93 %29.59 in6.2 miWest (280°)10.4 mphScattered Clouds
6:30 AM41.0 °F37.4 °F87 %29.59 in6.2 miWest (280°)12.7 mphScattered Clouds
7:00 AM41.0 °F36.0 °F77 %29.65 in12.0 miWest (270°)9.2 mphScattered Clouds
7:30 AM42.8 °F37.4 °F81 %29.65 in6.2 miWNW (290°)13.8 mphScattered Clouds
8:00 AM41.0 °F37.4 °F87 %29.65 in6.2 miWest (280°)12.7 mphMostly Cloudy
8:30 AM42.8 °F39.2 °F87 %29.65 in6.2 miWest (270°)11.5 mphRainLight Rain
9:00 AM42.8 °F39.2 °F87 %29.68 in6.2 miWest (280°)12.7 mphScattered Clouds
9:30 AM42.8 °F39.2 °F87 %29.68 in6.2 miWest (280°)13.8 mphScattered Clouds
10:00 AM44.6 °F37.4 °F76 %29.71 in6.2 miWest (280°)16.1 mphScattered Clouds
10:30 AM46.4 °F37.4 °F71 %29.71 in6.2 miWNW (290°)12.7 mphScattered Clouds
11:00 AM48.2 °F35.6 °F62 %29.74 in6.2 miWNW (300°)15.0 mphScattered Clouds
11:30 AM48.2 °F33.8 °F58 %29.74 inNW (310°)18.4 mph31.1 mphClear
12:00 PM48.2 °F33.8 °F58 %29.77 inWNW (300°)18.4 mphClear
1:00 PM49.0 °F36.0 °F51 %29.77 in47.0 miNW (320°)21.9 mphPartly Cloudy
1:00 PM50.0 °F32.0 °F50 %29.74 in6.2 miNW (320°)23.0 mph35.7 mphPartly Cloudy
1:30 PM50.0 °F33.8 °F54 %29.74 in6.2 miNW (310°)23.0 mphPartly Cloudy
2:00 PM50.0 °F32.0 °F50 %29.77 in6.2 miNW (310°)21.9 mphPartly Cloudy
2:30 PM50.0 °F30.2 °F47 %29.77 in6.2 miNW (310°)20.7 mphPartly Cloudy
3:00 PM50.0 °F32.0 °F50 %29.77 in6.2 miNW (310°)19.6 mphPartly Cloudy
3:30 PM50.0 °F30.2 °F47 %29.77 in6.2 miNW (320°)25.3 mphPartly Cloudy
4:00 PM48.2 °F32.0 °F54 %29.77 in6.2 miNW (320°)20.7 mph32.2 mphPartly Cloudy
4:30 PM50.0 °F30.2 °F47 %29.80 in6.2 miNW (310°)19.6 mphPartly Cloudy
5:00 PM50.0 °F26.6 °F40 %29.80 in6.2 miNW (320°)19.6 mph31.1 mphPartly Cloudy
5:30 PM48.2 °F26.6 °F43 %29.80 in6.2 miNW (320°)16.1 mphPartly Cloudy
6:00 PM46.4 °F28.4 °F50 %29.80 in6.2 miNW (310°)9.2 mphPartly Cloudy
6:30 PM44.6 °F28.4 °F53 %29.80 inWNW (300°)8.1 mphClear
7:00 PM47.0 °F27.0 °F32 %29.84 in47.0 miWNW (290°)9.2 mphScattered Clouds
7:00 PM42.8 °F30.2 °F61 %29.83 inWSW (250°)9.2 mphClear
7:30 PM44.6 °F30.2 °F57 %29.83 inWest (260°)10.4 mphClear
8:00 PM41.0 °F30.2 °F65 %29.83 inWest (260°)9.2 mphClear
8:30 PM41.0 °F30.2 °F65 %29.86 inWest (260°)9.2 mphClear
9:00 PM41.0 °F30.2 °F65 %29.86 inWest (260°)9.2 mphClear
9:30 PM39.2 °F28.4 °F65 %29.86 inWest (260°)6.9 mphClear
10:00 PM37.4 °F30.2 °F75 %29.86 inSW (230°)8.1 mphClear
10:30 PM39.2 °F28.4 °F65 %29.86 inWSW (250°)9.2 mphClear
11:00 PM35.6 °F28.4 °F75 %29.86 inSW (230°)5.8 mphClear
11:30 PM41.0 °F30.2 °F65 %29.86 inWSW (240°)5.8 mphClear
Hourly data recorded from LEZG, located miles away from Zaragoza, Spain







STORIES FROM OUR PARTNERS